Location: Unspecified
(43.4354°N, 0.0000°E)
Time: 10:32:02
(UTC+00:00)

A-11 Canister half - Pass Details

Date: 29 June 2019
Orbit: 1514 x 1685 km, 47.2° (Epoch: 19 July)

Event Time Altitude Azimuth Distance (km) Brightness Sun altitude
Rises 10:50:33 0° 265° (W) 4,914 11.5 64.8°
Reaches altitude 10° 10:53:46 10° 267° (W) 3,912 11.1 65.2°
Maximum altitude 11:03:48 73° 352° (N) 1,686 10.2 66.3°
Drops below altitude 10° 11:13:28 10° 78° (ENE) 3,782 11.3 67.3°
Sets 11:16:32 0° 80° (E) 4,745 11.7 67.6°
